Year,Month,Day,Hour,Minute,Value (Times are PST for temperature in C)
2007,12,08,07,47,-1.80
2007,12,08,07,51,-1.90
2007,12,08,07,52,-1.90
2007,12,08,07,53,-1.90
2007,12,08,07,54,-1.90
2007,12,08,07,55,-1.90
2007,12,08,07,56,-1.90
2007,12,08,07,57,-1.90
2007,12,08,07,58,-1.90
2007,12,08,07,59,-1.90
2007,12,08,08,00,-1.90
2007,12,08,08,01,-1.90
2007,12,08,08,02,-1.90
2007,12,08,08,03,-1.90
2007,12,08,08,04,-1.90
2007,12,08,08,05,-1.90
2007,12,08,08,06,-1.90
2007,12,08,08,07,-1.90
2007,12,08,08,08,-1.90
2007,12,08,08,09,-1.90
2007,12,08,08,10,-1.90
2007,12,08,08,11,-1.90
2007,12,08,08,12,-1.90
2007,12,08,08,13,-1.90
2007,12,08,08,14,-1.90
2007,12,08,08,15,-1.90
2007,12,08,08,16,-1.90
2007,12,08,08,17,-1.90
2007,12,08,08,18,-1.90
2007,12,08,08,19,-1.90
2007,12,08,08,21,-1.90
2007,12,08,08,22,-1.90
2007,12,08,08,23,-1.90
2007,12,08,08,24,-1.90
2007,12,08,08,25,-1.90
2007,12,08,08,26,-1.90
2007,12,08,08,27,-1.90
2007,12,08,08,28,-1.90
2007,12,08,08,29,-1.90
2007,12,08,08,30,-1.90
2007,12,08,08,31,-1.90
2007,12,08,08,32,-1.90
2007,12,08,08,33,-1.90
2007,12,08,08,34,-1.90
2007,12,08,08,35,-1.90
2007,12,08,08,36,-1.90
2007,12,08,08,37,-1.90
2007,12,08,08,38,-1.90
2007,12,08,08,39,-1.90
2007,12,08,08,40,-1.90
2007,12,08,08,41,-1.80
2007,12,08,08,42,-1.90
2007,12,08,08,43,-1.80
2007,12,08,08,44,-1.80
2007,12,08,08,45,-1.80
2007,12,08,08,46,-1.80
2007,12,08,08,47,-1.80
2007,12,08,08,48,-1.80
2007,12,08,08,49,-1.80
2007,12,08,08,50,-1.80
2007,12,08,08,51,-1.80
2007,12,08,08,52,-1.80
2007,12,08,08,53,-1.80
2007,12,08,08,54,-1.80
2007,12,08,08,55,-1.80
2007,12,08,08,56,-1.80
2007,12,08,08,57,-1.80
2007,12,08,08,58,-1.80
2007,12,08,08,59,-1.80
2007,12,08,09,00,-1.80
2007,12,08,09,01,-1.80
2007,12,08,09,02,-1.80
2007,12,08,09,03,-1.80
2007,12,08,09,04,-1.80
2007,12,08,09,05,-1.80
2007,12,08,09,06,-1.80
2007,12,08,09,07,-1.80
2007,12,08,09,08,-1.80
2007,12,08,09,09,-1.80
2007,12,08,09,10,-1.80
2007,12,08,09,11,-1.80
2007,12,08,09,12,-1.80
2007,12,08,09,13,-1.80
2007,12,08,09,14,-1.80
2007,12,08,09,15,-1.80
2007,12,08,09,16,-1.80
2007,12,08,09,17,-1.80
2007,12,08,09,18,-1.80
2007,12,08,09,19,-1.80
2007,12,08,09,20,-1.80
2007,12,08,09,21,-1.80
2007,12,08,09,22,-1.80
2007,12,08,09,23,-1.80
2007,12,08,09,24,-1.80
2007,12,08,09,25,-1.80
2007,12,08,09,26,-1.80
2007,12,08,09,27,-1.80
2007,12,08,09,28,-1.80
2007,12,08,09,29,-1.80
2007,12,08,09,30,-1.80
2007,12,08,09,31,-1.80
2007,12,08,09,32,-1.80
2007,12,08,09,33,-1.80
2007,12,08,09,34,-1.80
2007,12,08,09,35,-1.80
2007,12,08,09,36,-1.80
2007,12,08,09,37,-1.80
2007,12,08,09,38,-1.80
2007,12,08,09,39,-1.80
2007,12,08,09,40,-1.80
2007,12,08,09,41,-1.80
2007,12,08,09,42,-1.80
2007,12,08,09,43,-1.80
2007,12,08,09,44,-1.80
2007,12,08,09,45,-1.80
2007,12,08,09,46,-1.80
2007,12,08,09,47,-1.80
2007,12,08,09,48,-1.80
2007,12,08,09,49,-1.80
2007,12,08,09,50,-1.80
2007,12,08,09,51,-1.80
2007,12,08,09,52,-1.80
2007,12,08,09,53,-1.80
2007,12,08,09,54,-1.80
2007,12,08,09,55,-1.70
2007,12,08,09,56,-1.70
2007,12,08,09,57,-1.70
2007,12,08,09,58,-1.70
2007,12,08,09,59,-1.70
2007,12,08,10,00,-1.70
2007,12,08,10,01,-1.70
2007,12,08,10,02,-1.70
2007,12,08,10,03,-1.70
2007,12,08,10,04,-1.70
2007,12,08,10,05,-1.70
2007,12,08,10,06,-1.70
2007,12,08,10,07,-1.70
2007,12,08,10,08,-1.70
2007,12,08,10,09,-1.60
2007,12,08,10,10,-1.60
2007,12,08,10,11,-1.60
2007,12,08,10,12,-1.60
2007,12,08,10,13,-1.60
2007,12,08,10,14,-1.60
2007,12,08,10,15,-1.60
2007,12,08,10,16,-1.60
2007,12,08,10,17,-1.60
2007,12,08,10,18,-1.60
2007,12,08,10,19,-1.60
2007,12,08,10,20,-1.50
2007,12,08,10,21,-1.50
2007,12,08,10,22,-1.50
2007,12,08,10,23,-1.50
2007,12,08,10,24,-1.50
2007,12,08,10,25,-1.40
2007,12,08,10,26,-1.50
2007,12,08,10,27,-1.40
2007,12,08,10,28,-1.40
2007,12,08,10,29,-1.40
2007,12,08,10,30,-1.40
2007,12,08,10,31,-1.40
2007,12,08,10,32,-1.40
2007,12,08,10,33,-1.40
2007,12,08,10,34,-1.40
2007,12,08,10,35,-1.40
2007,12,08,10,36,-1.40
2007,12,08,10,37,-1.40
2007,12,08,10,38,-1.40
2007,12,08,10,39,-1.40
2007,12,08,10,40,-1.40
2007,12,08,10,41,-1.30
2007,12,08,10,42,-1.40
2007,12,08,10,43,-1.30
2007,12,08,10,44,-1.30
2007,12,08,10,45,-1.40
2007,12,08,10,46,-1.30
2007,12,08,10,47,-1.30
2007,12,08,10,48,-1.30
2007,12,08,10,49,-1.30
2007,12,08,10,50,-1.30
2007,12,08,10,51,-1.30
2007,12,08,10,52,-1.30
2007,12,08,10,53,-1.30
2007,12,08,10,54,-1.30
2007,12,08,10,55,-1.30
2007,12,08,10,56,-1.30
2007,12,08,10,57,-1.30
2007,12,08,10,58,-1.30
2007,12,08,10,59,-1.30
2007,12,08,11,00,-1.30
2007,12,08,11,01,-1.30
2007,12,08,11,02,-1.30
2007,12,08,11,03,-1.30
2007,12,08,11,04,-1.20
2007,12,08,11,05,-1.20
2007,12,08,11,06,-1.20
2007,12,08,11,07,-1.20
2007,12,08,11,08,-1.20
2007,12,08,11,09,-1.20
2007,12,08,11,10,-1.20
2007,12,08,11,11,-1.20
2007,12,08,11,12,-1.20
2007,12,08,11,13,-1.20
2007,12,08,11,14,-1.20
2007,12,08,11,15,-1.20
2007,12,08,11,16,-1.20
2007,12,08,11,17,-1.20
2007,12,08,11,18,-1.20
2007,12,08,11,19,-1.20
2007,12,08,11,20,-1.20
2007,12,08,11,21,-1.20
2007,12,08,11,22,-1.20
2007,12,08,11,23,-1.20
2007,12,08,11,24,-1.20
2007,12,08,11,25,-1.20
2007,12,08,11,26,-1.20
2007,12,08,11,27,-1.20
2007,12,08,11,28,-1.20
2007,12,08,11,29,-1.20
2007,12,08,11,30,-1.10
2007,12,08,11,31,-1.10
2007,12,08,11,32,-1.10
2007,12,08,11,33,-1.10
2007,12,08,11,34,-1.10
2007,12,08,11,35,-1.10
2007,12,08,11,36,-1.10
2007,12,08,11,37,-1.10
2007,12,08,11,38,-1.10
2007,12,08,11,39,-1.10
2007,12,08,11,40,-1.10
2007,12,08,11,41,-1.10
2007,12,08,11,42,-1.10
2007,12,08,11,43,-1.10
2007,12,08,11,44,-1.10
2007,12,08,11,45,-1.10
2007,12,08,11,46,-1.00
2007,12,08,11,47,-1.00
2007,12,08,11,48,-1.00
2007,12,08,11,49,-1.00
2007,12,08,11,50,-1.00
2007,12,08,11,51,-1.00
2007,12,08,11,52,-0.90
2007,12,08,11,53,-0.90
2007,12,08,11,54,-0.90
2007,12,08,11,55,-0.90
2007,12,08,11,56,-0.90
2007,12,08,11,57,-0.90
2007,12,08,11,58,-0.90
2007,12,08,11,59,-0.90
2007,12,08,12,00,-0.90
2007,12,08,12,01,-0.90
2007,12,08,12,02,-0.90
2007,12,08,12,03,-0.90
2007,12,08,12,04,-0.90
2007,12,08,12,05,-0.90
2007,12,08,12,06,-0.90
2007,12,08,12,07,-0.90
2007,12,08,12,08,-0.90
2007,12,08,12,09,-0.80
2007,12,08,12,10,-0.80
2007,12,08,12,11,-0.80
2007,12,08,12,12,-0.80
2007,12,08,12,13,-0.80
2007,12,08,12,14,-0.80
2007,12,08,12,15,-0.80
2007,12,08,12,16,-0.80
2007,12,08,12,17,-0.80
2007,12,08,12,18,-0.80
2007,12,08,12,19,-0.80
2007,12,08,12,20,-0.80
2007,12,08,12,21,-0.80
2007,12,08,12,22,-0.80
2007,12,08,12,23,-0.80
2007,12,08,12,24,-0.80
2007,12,08,12,25,-0.80
2007,12,08,12,26,-0.80
2007,12,08,12,27,-0.80
2007,12,08,12,28,-0.80
2007,12,08,12,29,-0.80
2007,12,08,12,30,-0.80
2007,12,08,12,31,-0.80
2007,12,08,12,32,-0.80
2007,12,08,12,33,-0.80
2007,12,08,12,34,-0.80
2007,12,08,12,35,-0.80
2007,12,08,12,36,-0.80
2007,12,08,12,37,-0.80
2007,12,08,12,38,-0.80
2007,12,08,12,39,-0.80
2007,12,08,12,40,-0.80
2007,12,08,12,41,-0.80
2007,12,08,12,42,-0.80
2007,12,08,12,43,-0.80
2007,12,08,12,44,-0.80
2007,12,08,12,45,-0.80
2007,12,08,12,46,-0.80
2007,12,08,12,47,-0.80
2007,12,08,12,48,-0.80
2007,12,08,12,49,-0.80
2007,12,08,12,50,-0.80
2007,12,08,12,51,-0.70
2007,12,08,12,52,-0.70
2007,12,08,12,53,-0.70
2007,12,08,12,54,-0.70
2007,12,08,12,55,-0.70
2007,12,08,12,56,-0.70
2007,12,08,12,57,-0.70
2007,12,08,12,58,-0.70
2007,12,08,12,59,-0.70
2007,12,08,13,00,-0.70
2007,12,08,13,01,-0.70
2007,12,08,13,02,-0.70
2007,12,08,13,03,-0.70
2007,12,08,13,04,-0.70
2007,12,08,13,05,-0.70
2007,12,08,13,06,-0.70
2007,12,08,13,07,-0.70
2007,12,08,13,08,-0.70
2007,12,08,13,09,-0.70
2007,12,08,13,10,-0.70
2007,12,08,13,11,-0.70
2007,12,08,13,12,-0.70
2007,12,08,13,13,-0.70
2007,12,08,13,14,-0.70
2007,12,08,13,15,-0.70
2007,12,08,13,16,-0.60
2007,12,08,13,17,-0.60
2007,12,08,13,18,-0.60
2007,12,08,13,19,-0.60
2007,12,08,13,20,-0.60
2007,12,08,13,21,-0.60
2007,12,08,13,22,-0.60
2007,12,08,13,23,-0.60
2007,12,08,13,24,-0.60
2007,12,08,13,25,-0.60
2007,12,08,13,26,-0.60
2007,12,08,13,27,-0.60
2007,12,08,13,28,-0.60
2007,12,08,13,29,-0.60
2007,12,08,13,30,-0.60
2007,12,08,13,31,-0.60
2007,12,08,13,32,-0.60
2007,12,08,13,33,-0.60
2007,12,08,13,34,-0.60
2007,12,08,13,35,-0.60
2007,12,08,13,36,-0.60
2007,12,08,13,37,-0.60
2007,12,08,13,38,-0.60
2007,12,08,13,39,-0.60
2007,12,08,13,40,-0.60
2007,12,08,13,41,-0.60
2007,12,08,13,42,-0.50
2007,12,08,13,43,-0.50
2007,12,08,13,44,-0.50
2007,12,08,13,45,-0.50
2007,12,08,13,46,-0.50
2007,12,08,13,47,-0.50
2007,12,08,13,48,-0.50
2007,12,08,13,49,-0.50
2007,12,08,13,50,-0.50
2007,12,08,13,51,-0.50
2007,12,08,13,52,-0.50
2007,12,08,13,53,-0.40
2007,12,08,13,54,-0.40
2007,12,08,13,55,-0.40
2007,12,08,13,56,-0.40
2007,12,08,13,57,-0.40
2007,12,08,13,58,-0.40
2007,12,08,13,59,-0.40
2007,12,08,14,00,-0.40
2007,12,08,14,01,-0.40
2007,12,08,14,02,-0.40
2007,12,08,14,03,-0.40
2007,12,08,14,04,-0.40
2007,12,08,14,05,-0.40
2007,12,08,14,06,-0.40
2007,12,08,14,07,-0.50
2007,12,08,14,08,-0.50
2007,12,08,14,09,-0.50
2007,12,08,14,10,-0.40
2007,12,08,14,11,-0.50
2007,12,08,14,12,-0.50
2007,12,08,14,13,-0.50
2007,12,08,14,14,-0.50
2007,12,08,14,15,-0.50
2007,12,08,14,16,-0.40
2007,12,08,14,17,-0.50
2007,12,08,14,18,-0.50
2007,12,08,14,19,-0.40
2007,12,08,14,20,-0.40
2007,12,08,14,21,-0.40
2007,12,08,14,22,-0.40
2007,12,08,14,23,-0.40
2007,12,08,14,24,-0.40
2007,12,08,14,25,-0.40
2007,12,08,14,26,-0.40
2007,12,08,14,27,-0.40
2007,12,08,14,28,-0.40
2007,12,08,14,29,-0.40
2007,12,08,14,30,-0.40
2007,12,08,14,31,-0.40
2007,12,08,14,32,-0.40
2007,12,08,14,33,-0.40
2007,12,08,14,34,-0.40
2007,12,08,14,35,-0.40
2007,12,08,14,36,-0.40
2007,12,08,14,37,-0.40
2007,12,08,14,38,-0.40
2007,12,08,14,39,-0.40
2007,12,08,14,40,-0.40
2007,12,08,14,41,-0.40
2007,12,08,14,42,-0.50
2007,12,08,14,43,-0.50
2007,12,08,14,44,-0.60
2007,12,08,14,45,-0.60
2007,12,08,14,46,-0.60
2007,12,08,14,47,-0.60
2007,12,08,14,48,-0.60
2007,12,08,14,49,-0.60
2007,12,08,14,50,-0.60
2007,12,08,14,51,-0.70
2007,12,08,14,52,-0.70
2007,12,08,14,53,-0.70
2007,12,08,14,54,-0.70
2007,12,08,14,55,-0.70
2007,12,08,14,56,-0.80
2007,12,08,14,57,-0.80
2007,12,08,14,58,-0.80
2007,12,08,14,59,-0.80
2007,12,08,15,00,-0.70
2007,12,08,15,01,-0.80
2007,12,08,15,02,-0.70
2007,12,08,15,03,-0.70
2007,12,08,15,04,-0.70
2007,12,08,15,05,-0.70
2007,12,08,15,06,-0.70
2007,12,08,15,07,-0.70
2007,12,08,15,08,-0.70
2007,12,08,15,09,-0.70
2007,12,08,15,10,-0.70
2007,12,08,15,11,-0.70
2007,12,08,15,12,-0.70
2007,12,08,15,13,-0.70
2007,12,08,15,14,-0.60
2007,12,08,15,15,-0.60
2007,12,08,15,16,-0.60
2007,12,08,15,17,-0.60
2007,12,08,15,18,-0.60
2007,12,08,15,19,-0.60
2007,12,08,15,20,-0.60
2007,12,08,15,21,-0.60
2007,12,08,15,22,-0.60
2007,12,08,15,23,-0.60
2007,12,08,15,24,-0.60
2007,12,08,15,25,-0.60
2007,12,08,15,26,-0.50
2007,12,08,15,27,-0.50
2007,12,08,15,28,-0.50
2007,12,08,15,29,-0.50
2007,12,08,15,30,-0.50
2007,12,08,15,31,-0.50
2007,12,08,15,32,-0.50
2007,12,08,15,33,-0.50
2007,12,08,15,34,-0.50
2007,12,08,15,35,-0.50
2007,12,08,15,36,-0.50
2007,12,08,15,37,-0.50
2007,12,08,15,38,-0.50
2007,12,08,15,39,-0.50
2007,12,08,15,40,-0.50
2007,12,08,15,41,-0.50
2007,12,08,15,42,-0.50
2007,12,08,15,43,-0.60
2007,12,08,15,44,-0.50
2007,12,08,15,45,-0.50
2007,12,08,15,46,-0.60
2007,12,08,15,47,-0.60
2007,12,08,15,48,-0.60
2007,12,08,15,49,-0.60
2007,12,08,15,50,-0.60
2007,12,08,15,51,-0.60
2007,12,08,15,52,-0.60
2007,12,08,15,53,-0.60
2007,12,08,15,54,-0.60
2007,12,08,15,55,-0.60
2007,12,08,15,56,-0.60
2007,12,08,15,57,-0.60
2007,12,08,15,58,-0.60
2007,12,08,15,59,-0.60
2007,12,08,16,00,-0.60
2007,12,08,16,01,-0.60
2007,12,08,16,02,-0.60
2007,12,08,16,03,-0.60
2007,12,08,16,04,-0.60
2007,12,08,16,05,-0.60
2007,12,08,16,06,-0.60
2007,12,08,16,07,-0.60
2007,12,08,16,08,-0.60
2007,12,08,16,09,-0.60
2007,12,08,16,10,-0.60
2007,12,08,16,11,-0.60
2007,12,08,16,12,-0.60
2007,12,08,16,13,-0.60
2007,12,08,16,14,-0.60
2007,12,08,16,15,-0.60
2007,12,08,16,16,-0.70
2007,12,08,16,17,-0.70
2007,12,08,16,18,-0.70
2007,12,08,16,19,-0.70
2007,12,08,16,20,-0.70
2007,12,08,16,21,-0.70
2007,12,08,16,22,-0.70
2007,12,08,16,23,-0.70
2007,12,08,16,24,-0.70
2007,12,08,16,25,-0.70
2007,12,08,16,26,-0.70
2007,12,08,16,27,-0.70
2007,12,08,16,28,-0.70
2007,12,08,16,29,-0.70
2007,12,08,16,30,-0.70
2007,12,08,16,31,-0.70
2007,12,08,16,32,-0.70
2007,12,08,16,33,-0.70
2007,12,08,16,34,-0.70
2007,12,08,16,35,-0.70
2007,12,08,16,36,-0.70
2007,12,08,16,37,-0.70
2007,12,08,16,38,-0.70
2007,12,08,16,39,-0.70
2007,12,08,16,40,-0.80
2007,12,08,16,41,-0.80
2007,12,08,16,42,-0.80
2007,12,08,16,43,-0.80
2007,12,08,16,44,-0.80
2007,12,08,16,45,-0.80
2007,12,08,16,46,-0.80
2007,12,08,16,47,-0.80
2007,12,08,16,48,-0.80
2007,12,08,16,49,-0.80
2007,12,08,16,50,-0.80
2007,12,08,16,51,-0.80
2007,12,08,16,52,-0.80
2007,12,08,16,53,-0.80
2007,12,08,16,54,-0.80
2007,12,08,16,55,-0.80
2007,12,08,16,56,-0.80
2007,12,08,16,57,-0.80
2007,12,08,16,58,-0.80
2007,12,08,16,59,-0.80
2007,12,08,17,00,-0.80
2007,12,08,17,01,-0.80
2007,12,08,17,02,-0.80
2007,12,08,17,03,-0.90
2007,12,08,17,04,-0.90
2007,12,08,17,05,-0.90
2007,12,08,17,06,-0.90
2007,12,08,17,07,-0.90
2007,12,08,17,08,-1.00
2007,12,08,17,09,-1.00
2007,12,08,17,10,-1.00
2007,12,08,17,11,-1.10
2007,12,08,17,12,-1.00
2007,12,08,17,13,-1.10
2007,12,08,17,14,-1.10
2007,12,08,17,15,-1.10
2007,12,08,17,16,-1.10
2007,12,08,17,17,-1.10
2007,12,08,17,18,-1.10
2007,12,08,17,19,-1.10
2007,12,08,17,20,-1.10
2007,12,08,17,21,-1.20
2007,12,08,17,22,-1.20
2007,12,08,17,23,-1.20
2007,12,08,17,24,-1.20
2007,12,08,17,25,-1.20
2007,12,08,17,26,-1.20
2007,12,08,17,27,-1.20
2007,12,08,17,28,-1.20
2007,12,08,17,29,-1.20
2007,12,08,17,30,-1.20
2007,12,08,17,31,-1.20
2007,12,08,17,32,-1.20
2007,12,08,17,33,-1.30
2007,12,08,17,34,-1.30
2007,12,08,17,35,-1.30
2007,12,08,17,36,-1.30
2007,12,08,17,37,-1.30
2007,12,08,17,38,-1.30
2007,12,08,17,39,-1.30
2007,12,08,17,40,-1.30
2007,12,08,17,41,-1.30
2007,12,08,17,42,-1.30
2007,12,08,17,43,-1.40
2007,12,08,17,44,-1.30
2007,12,08,17,45,-1.40
2007,12,08,17,46,-1.30
2007,12,08,17,47,-1.40
2007,12,08,17,48,-1.30
2007,12,08,17,49,-1.30
2007,12,08,17,50,-1.30
2007,12,08,17,51,-1.30
2007,12,08,17,52,-1.30
2007,12,08,17,53,-1.30
2007,12,08,17,54,-1.30
2007,12,08,17,55,-1.30
2007,12,08,17,56,-1.30
2007,12,08,17,57,-1.30
2007,12,08,17,58,-1.30
2007,12,08,17,59,-1.30
2007,12,08,18,00,-1.30
2007,12,08,18,01,-1.30
2007,12,08,18,02,-1.30
2007,12,08,18,03,-1.30
2007,12,08,18,04,-1.30
2007,12,08,18,05,-1.30
2007,12,08,18,06,-1.30
2007,12,08,18,07,-1.30
2007,12,08,18,08,-1.30
2007,12,08,18,09,-1.30
2007,12,08,18,10,-1.30
2007,12,08,18,11,-1.30
2007,12,08,18,12,-1.30
2007,12,08,18,13,-1.30
2007,12,08,18,14,-1.30
2007,12,08,18,15,-1.30
2007,12,08,18,16,-1.30
2007,12,08,18,17,-1.30
2007,12,08,18,18,-1.30
2007,12,08,18,19,-1.30
2007,12,08,18,20,-1.30
2007,12,08,18,21,-1.30
2007,12,08,18,22,-1.30
2007,12,08,18,23,-1.30
2007,12,08,18,24,-1.30
2007,12,08,18,25,-1.30
2007,12,08,18,26,-1.30
2007,12,08,18,27,-1.30
2007,12,08,18,28,-1.20
2007,12,08,18,29,-1.20
2007,12,08,18,30,-1.20
2007,12,08,18,31,-1.20
2007,12,08,18,32,-1.20
2007,12,08,18,33,-1.20
2007,12,08,18,34,-1.20
2007,12,08,18,35,-1.20
2007,12,08,18,36,-1.20
2007,12,08,18,37,-1.20
2007,12,08,18,38,-1.20
2007,12,08,18,39,-1.20
2007,12,08,18,40,-1.20
2007,12,08,18,41,-1.20
2007,12,08,18,42,-1.20
2007,12,08,18,43,-1.20
2007,12,08,18,44,-1.20
2007,12,08,18,45,-1.20
2007,12,08,18,46,-1.20
2007,12,08,18,47,-1.20
2007,12,08,18,48,-1.20
2007,12,08,18,49,-1.20
2007,12,08,18,50,-1.20
2007,12,08,18,51,-1.20
2007,12,08,18,52,-1.20
2007,12,08,18,53,-1.30
2007,12,08,18,54,-1.20
2007,12,08,18,55,-1.30
2007,12,08,18,56,-1.30
2007,12,08,18,57,-1.30
2007,12,08,18,58,-1.30
2007,12,08,18,59,-1.30
2007,12,08,19,00,-1.30
2007,12,08,19,01,-1.30
2007,12,08,19,02,-1.30
2007,12,08,19,03,-1.30
2007,12,08,19,04,-1.30
2007,12,08,19,05,-1.30
2007,12,08,19,06,-1.30
2007,12,08,19,07,-1.30
2007,12,08,19,08,-1.30
2007,12,08,19,09,-1.20
2007,12,08,19,10,-1.30
2007,12,08,19,11,-1.30
2007,12,08,19,12,-1.30
2007,12,08,19,13,-1.30
2007,12,08,19,14,-1.30
2007,12,08,19,15,-1.30
2007,12,08,19,16,-1.30
2007,12,08,19,17,-1.30
2007,12,08,19,18,-1.30
2007,12,08,19,19,-1.30
2007,12,08,19,20,-1.30
2007,12,08,19,21,-1.30
2007,12,08,19,22,-1.30
2007,12,08,19,23,-1.30
2007,12,08,19,24,-1.30
2007,12,08,19,25,-1.30
2007,12,08,19,26,-1.30
2007,12,08,19,27,-1.30
2007,12,08,19,28,-1.30
2007,12,08,19,29,-1.30
2007,12,08,19,30,-1.30
2007,12,08,19,31,-1.30
2007,12,08,19,32,-1.30
2007,12,08,19,33,-1.30
2007,12,08,19,34,-1.30
2007,12,08,19,35,-1.30
2007,12,08,19,36,-1.30
2007,12,08,19,37,-1.40
2007,12,08,19,38,-1.40
2007,12,08,19,39,-1.40
2007,12,08,19,40,-1.40
2007,12,08,19,41,-1.40
2007,12,08,19,42,-1.40
2007,12,08,19,43,-1.40
2007,12,08,19,44,-1.40
2007,12,08,19,45,-1.40
2007,12,08,19,46,-1.40
2007,12,08,19,47,-1.40
2007,12,08,19,48,-1.40
2007,12,08,19,49,-1.40
2007,12,08,19,50,-1.40
2007,12,08,19,51,-1.40
2007,12,08,19,52,-1.40
2007,12,08,19,53,-1.40
2007,12,08,19,54,-1.40
2007,12,08,19,55,-1.40
2007,12,08,19,56,-1.40
2007,12,08,19,57,-1.40
2007,12,08,19,58,-1.40
2007,12,08,19,59,-1.40
2007,12,08,20,00,-1.40
2007,12,08,20,01,-1.40
2007,12,08,20,02,-1.40
2007,12,08,20,03,-1.40
2007,12,08,20,04,-1.40
2007,12,08,20,05,-1.40
2007,12,08,20,06,-1.40
2007,12,08,20,07,-1.40
2007,12,08,20,08,-1.40
2007,12,08,20,09,-1.40
2007,12,08,20,10,-1.40
2007,12,08,20,11,-1.40
2007,12,08,20,12,-1.40
2007,12,08,20,13,-1.40
2007,12,08,20,14,-1.40
2007,12,08,20,15,-1.40
2007,12,08,20,16,-1.40
2007,12,08,20,17,-1.40
2007,12,08,20,18,-1.40
2007,12,08,20,19,-1.40
2007,12,08,20,20,-1.40
2007,12,08,20,21,-1.40
2007,12,08,20,22,-1.40
2007,12,08,20,23,-1.40
2007,12,08,20,24,-1.40
2007,12,08,20,25,-1.40
2007,12,08,20,26,-1.50
2007,12,08,20,27,-1.50
2007,12,08,20,28,-1.50
2007,12,08,20,29,-1.50
2007,12,08,20,30,-1.50
2007,12,08,20,31,-1.50
2007,12,08,20,32,-1.50
2007,12,08,20,33,-1.50
2007,12,08,20,34,-1.50
2007,12,08,20,35,-1.50
2007,12,08,20,36,-1.50
2007,12,08,20,37,-1.50
2007,12,08,20,38,-1.50
2007,12,08,20,39,-1.50
2007,12,08,20,40,-1.50
2007,12,08,20,41,-1.50
2007,12,08,20,42,-1.50
2007,12,08,20,43,-1.50
2007,12,08,20,44,-1.50
2007,12,08,20,45,-1.50
2007,12,08,20,46,-1.50
2007,12,08,20,47,-1.50
2007,12,08,20,48,-1.50
2007,12,08,20,49,-1.50
2007,12,08,20,50,-1.50
2007,12,08,20,51,-1.50
2007,12,08,20,52,-1.50
2007,12,08,20,53,-1.50
2007,12,08,20,54,-1.50
2007,12,08,20,55,-1.50
2007,12,08,20,56,-1.60
2007,12,08,20,57,-1.60
2007,12,08,20,58,-1.60
2007,12,08,20,59,-1.60
2007,12,08,21,00,-1.60
2007,12,08,21,01,-1.60
2007,12,08,21,02,-1.60
2007,12,08,21,03,-1.60
2007,12,08,21,04,-1.60
2007,12,08,21,05,-1.60
2007,12,08,21,06,-1.70
2007,12,08,21,07,-1.70
2007,12,08,21,08,-1.70
2007,12,08,21,09,-1.70
2007,12,08,21,10,-1.70
2007,12,08,21,11,-1.80
2007,12,08,21,12,-1.80
2007,12,08,21,13,-1.80
2007,12,08,21,14,-1.80
2007,12,08,21,15,-1.80
2007,12,08,21,16,-1.80
2007,12,08,21,17,-1.80
2007,12,08,21,18,-1.80
2007,12,08,21,19,-1.80
2007,12,08,21,20,-1.80
2007,12,08,21,21,-1.80
2007,12,08,21,22,-1.80
2007,12,08,21,23,-1.90
2007,12,08,21,24,-1.80
2007,12,08,21,25,-1.90
2007,12,08,21,26,-1.90
2007,12,08,21,27,-1.90
2007,12,08,21,28,-1.90
2007,12,08,21,29,-1.90
2007,12,08,21,30,-1.90
2007,12,08,21,31,-1.90
2007,12,08,21,32,-1.90
2007,12,08,21,33,-1.90
2007,12,08,21,34,-1.90
2007,12,08,21,35,-1.90
2007,12,08,21,36,-1.90
2007,12,08,21,37,-1.90
2007,12,08,21,39,-1.90
2007,12,08,21,40,-1.90
2007,12,08,21,41,-1.90
2007,12,08,21,42,-1.90
2007,12,08,21,43,-1.90
2007,12,08,21,44,-1.90
2007,12,08,21,45,-1.90
2007,12,08,21,47,-1.90
2007,12,08,21,48,-1.90
2007,12,08,21,49,-1.90
2007,12,08,21,51,-1.90
2007,12,08,21,53,-1.90
2007,12,08,21,54,-1.90
2007,12,08,21,55,-1.90
2007,12,08,21,57,-1.80
2007,12,08,21,58,-1.80
2007,12,08,21,59,-1.80
2007,12,08,22,00,-1.80
2007,12,08,22,01,-1.80
2007,12,08,22,03,-1.80
2007,12,08,22,04,-1.80
2007,12,08,22,06,-1.80
2007,12,08,22,08,-1.80
2007,12,08,22,12,-1.80
2007,12,08,22,14,-1.80
2007,12,08,22,15,-1.80
2007,12,08,22,17,-1.80
2007,12,08,22,18,-1.80
2007,12,08,22,20,-1.80
2007,12,08,22,22,-1.80
2007,12,08,22,24,-1.80
2007,12,08,22,27,-1.80
2007,12,08,22,29,-1.80
2007,12,08,22,30,-1.80
2007,12,08,22,31,-1.80
2007,12,08,22,33,-1.80
2007,12,08,22,35,-1.80
2007,12,08,22,36,-1.70
2007,12,08,22,38,-1.70
2007,12,08,22,40,-1.70
2007,12,08,22,42,-1.70
2007,12,08,22,44,-1.70
2007,12,08,22,46,-1.70
2007,12,08,22,48,-1.70
2007,12,08,22,50,-1.70
2007,12,08,22,51,-1.70
2007,12,08,22,52,-1.70
2007,12,08,22,55,-1.70
2007,12,08,22,57,-1.70
2007,12,08,22,58,-1.70
2007,12,08,23,00,-1.70
2007,12,08,23,01,-1.70
2007,12,08,23,02,-1.70
2007,12,08,23,03,-1.70
2007,12,08,23,04,-1.60
2007,12,08,23,05,-1.60
2007,12,08,23,06,-1.60
2007,12,08,23,07,-1.60
2007,12,08,23,08,-1.60
2007,12,08,23,09,-1.60
2007,12,08,23,10,-1.60
2007,12,08,23,11,-1.60
2007,12,08,23,12,-1.60
2007,12,08,23,14,-1.60
2007,12,08,23,15,-1.60
2007,12,08,23,16,-1.60
2007,12,08,23,17,-1.60
2007,12,08,23,18,-1.60
2007,12,08,23,20,-1.60
2007,12,08,23,21,-1.60
2007,12,08,23,22,-1.60
2007,12,08,23,24,-1.60
2007,12,08,23,26,-1.60
2007,12,08,23,28,-1.60
2007,12,08,23,29,-1.60
2007,12,08,23,30,-1.60
2007,12,08,23,32,-1.70
2007,12,08,23,33,-1.70
2007,12,08,23,34,-1.70
2007,12,08,23,35,-1.70
2007,12,08,23,36,-1.70
2007,12,08,23,37,-1.70
2007,12,08,23,38,-1.70
2007,12,08,23,40,-1.70
2007,12,08,23,41,-1.70
2007,12,08,23,42,-1.70
2007,12,08,23,43,-1.70
2007,12,08,23,44,-1.70
2007,12,08,23,45,-1.70
2007,12,08,23,47,-1.70
2007,12,08,23,48,-1.70
2007,12,08,23,49,-1.70
2007,12,08,23,50,-1.70
2007,12,08,23,51,-1.70
2007,12,08,23,52,-1.70
2007,12,08,23,54,-1.70
2007,12,08,23,55,-1.70
2007,12,08,23,56,-1.70
2007,12,08,23,57,-1.70
2007,12,08,23,59,-1.70
